This is the latest recevied weather packets stored in our database for station/object KI5RKU-09. If no packets are shown the sender has not sent any weather packets the latest 10 day(s).
| Time | Temp. | Humidity | Pressure | Rain* | Wind** | Luminosity | Snow |
|---|---|---|---|---|---|---|---|
| 1776982545 | 26.11° C | 67% | 1007.3 hPa | 0 mm | - | 79 W/m² | - |
| 1776979846 | 25.56° C | 67% | 1008 hPa | 0 mm | - | 163 W/m² | - |
| 1776979531 | 25.56° C | 67% | 1008.1 hPa | 0 mm | - | 90 W/m² | - |
| 1776979228 | 25.56° C | 67% | 1008.1 hPa | 0 mm | - | 151 W/m² | - |
| 1776978327 | 25.56° C | 68% | 1008.2 hPa | 0 mm | - | 214 W/m² | - |
| 1776977428 | 25° C | 69% | 1008.6 hPa | 0 mm | - | 134 W/m² | - |
| 1776975931 | 25° C | 70% | 1009.4 hPa | 0 mm | - | 204 W/m² | - |
| 1776973546 | 23.89° C | 72% | 1009.9 hPa | 0.25 mm | - | 264 W/m² | - |
| 1776970528 | 23.33° C | 75% | 1010.3 hPa | 0.25 mm | - | 197 W/m² | - |
| 1776970231 | 23.33° C | 75% | 1010.4 hPa | 0 mm | - | 172 W/m² | - |
| 1776969627 | 22.78° C | 76% | 1010.6 hPa | 0 mm | - | 125 W/m² | - |
| 1776968727 | 22.78° C | 75% | 1010.7 hPa | 0 mm | - | 76 W/m² | - |
| 1776966354 | 22.78° C | 75% | 1011.2 hPa | 0 mm | - | 190 W/m² | - |
| 1776965727 | 22.78° C | 76% | 1011.4 hPa | 0 mm | - | 179 W/m² | - |
| 1776963328 | 22.22° C | 77% | 1012.1 hPa | 0 mm | - | 98 W/m² | - |
| 1776963027 | 22.22° C | 77% | 1012.2 hPa | 0 mm | - | 86 W/m² | - |
| 1776962430 | 22.22° C | 78% | 1012.3 hPa | 0 mm | - | 116 W/m² | - |
| 1776962129 | 22.22° C | 78% | 1012.3 hPa | 0 mm | - | 105 W/m² | - |
| 1776960942 | 21.67° C | 80% | 1012.4 hPa | 0 mm | - | 104 W/m² | - |
| 1776959733 | 20.56° C | 83% | 1012.4 hPa | 0 mm | - | 86 W/m² | - |
| 1776958528 | 20.56° C | 82% | 1012.7 hPa | 0 mm | - | 28 W/m² | - |
| 1776957631 | 20.56° C | 82% | 1012.9 hPa | 0 mm | - | 21 W/m² | - |
| 1776953748 | 20° C | 83% | 1012.8 hPa | 0 mm | - | 21 W/m² | - |
| 1776953427 | 20° C | 84% | 1012.8 hPa | 0 mm | - | 25 W/m² | - |
| 1776952856 | 20° C | 84% | 1012.7 hPa | 0 mm | - | 18 W/m² | - |
* Rain latest hour (hover to see other rain measurements)
** Current wind speed in m/s (hover to see current wind gust speed)